This is the latest recevied weather packets stored in our database for station/object W5ITZ. If no packets are shown the sender has not sent any weather packets the latest 10 day(s).
| Time | Temp. | Humidity | Pressure | Rain* | Wind** | Luminosity | Snow |
|---|---|---|---|---|---|---|---|
| 1777149842 | 29.44° C | 71% | 1007 hPa | 0 mm | - | 758 W/m² | - |
| 1777149539 | 29.44° C | 69% | 1007 hPa | 0 mm | - | 439 W/m² | - |
| 1777149236 | 30° C | 68% | 1007.1 hPa | 0 mm | - | 461 W/m² | - |
| 1777148930 | 29.44° C | 69% | 1007 hPa | 0 mm | - | 824 W/m² | - |
| 1777148627 | 29.44° C | 69% | 1007.2 hPa | 0 mm | - | 788 W/m² | - |
| 1777148323 | 30° C | 69% | 1007 hPa | 0 mm | - | 386 W/m² | - |
| 1777148019 | 30° C | 69% | 1007.4 hPa | 0 mm | - | 846 W/m² | - |
| 1777147716 | 30° C | 68% | 1007.1 hPa | 0 mm | - | 830 W/m² | - |
| 1777147411 | 29.44° C | 70% | 1007.1 hPa | 0 mm | - | 799 W/m² | - |
| 1777147106 | 29.44° C | 70% | 1007.2 hPa | 0 mm | - | 410 W/m² | - |
| 1777146802 | 29.44° C | 69% | 1007.1 hPa | 0 mm | - | 618 W/m² | - |
| 1777146499 | 30° C | 68% | 1007.4 hPa | 0 mm | - | 502 W/m² | - |
| 1777146195 | 30° C | 70% | 1007.3 hPa | 0 mm | - | 900 W/m² | - |
| 1777145891 | 30° C | 69% | 1007.3 hPa | 0 mm | - | 873 W/m² | - |
| 1777145587 | 29.44° C | 72% | 1007.3 hPa | 0 mm | - | 502 W/m² | - |
| 1777145283 | 29.44° C | 72% | 1007.4 hPa | 0 mm | - | 510 W/m² | - |
| 1777144978 | 30° C | 70% | 1007.2 hPa | 0 mm | - | 748 W/m² | - |
| 1777144676 | 29.44° C | 72% | 1007.5 hPa | 0 mm | - | 525 W/m² | - |
| 1777144371 | 29.44° C | 72% | 1007.6 hPa | 0 mm | - | 993 W/m² | - |
| 1777144069 | 30° C | 73% | 1007.4 hPa | 0 mm | - | 427 W/m² | - |
| 1777143765 | 29.44° C | 71% | 1007.5 hPa | 0 mm | - | 826 W/m² | - |
| 1777143462 | 29.44° C | 72% | 1007.7 hPa | 0 mm | - | 459 W/m² | - |
| 1777143158 | 29.44° C | 73% | 1007.7 hPa | 0 mm | - | 909 W/m² | - |
| 1777142853 | 30° C | 72% | 1007.8 hPa | 0 mm | - | 799 W/m² | - |
| 1777142550 | 28.89° C | 74% | 1007.8 hPa | 0 mm | - | 962 W/m² | - |
* Rain latest hour (hover to see other rain measurements)
** Current wind speed in m/s (hover to see current wind gust speed)